Location: *
(47.6569°N, 7.4256°E)
Time: 04:18:34
(UTC+00:00)

Lacrosse 5 - Pass Details

Date: 14 December 2019
Orbit: 717 x 722 km, 57.0° (Epoch: 10 January)

Event Time Altitude Azimuth Distance (km) Brightness Sun altitude
Rises 17:31:26 0° 199° (SSW) 3,110 5.6 -18.0°
Reaches altitude 10° 17:34:01 10° 189° (S) 2,193 4.7 -18.4°
Maximum altitude 17:38:25 31° 128° (SE) 1,248 2.8 -19.1°
Enters shadow 17:38:57 30° 116° (ESE) 1,268 2.7 -19.2°
